Home > Weather > Kashgar > Past weeks

Flag for China Weather for the Past 2 Weeks in Kashgar, Xinjiang, China

Now
27 °F

Clear.


Feels Like: 23 °F
Forecast: 12 / 35 °F
Wind: 3 mph from West

Location: Kashi Airport

Current Time: Feb 6, 2016 at 11:50:30 PM

Latest Report: Feb 6, 2016 at 11:00 PM


Visibility: 5 mi

Pressure: 30.51 "Hg (25.89 "Hg at 1298m altitude)

Humidity: 74%

Dew point: 19 °F

Location of KashgarLocation

Historic Weather in Kashgar — Graph

°F

Kashgar Temperature Yesterday

Maximum temperature yesterday: 34 °F (at 2:00 PM)
Minimum temperature yesterday: 23 °F (at 1:00 AM)
Average temperature yesterday: 28 °F

High & Low Weather Summary for the Past Weeks

 TemperatureHumidityPressure
High39 °F (Feb 6, 4:00 PM)93% (Jan 25, 12:00 PM)30.83 "Hg (Jan 25, 12:00 PM)
Low9 °F (Jan 23, 4:00 AM)39% (Feb 6, 4:00 PM)29.98 "Hg (Jan 26, 5:00 PM)
Average22 °F75%30.34 "Hg
* Reported Jan 22 10:00 PM — Feb 6 10:00 PM, Kashgar, Weather by CustomWeather, © 2016

Note: Actual official high and low records may vary slightly from our data, if they occured in-between our weather recording intervals... More about our weather records

Advertising

Kashgar Weather History for the Previous 24 Hours

 ConditionsComfort  
Time TempWeatherWind HumidityBarometerVisibility
10:00 PM
Sat, Feb 6
28 °FClear.3 mph69%30.51 "Hg5 mi
9:00 PM30 °FClear.3 mph69%30.51 "Hg5 mi
8:00 PM34 °FSunny.6 mph51%30.51 "Hg10 mi
7:00 PM34 °FSunny.1 mph51%30.51 "Hg10 mi
6:00 PM36 °FSunny.1 mph44%30.51 "Hg10 mi
5:00 PM36 °FSunny.1 mph44%30.54 "Hg10 mi
4:00 PM39 °FSunny.No wind39%30.57 "Hg10 mi
3:00 PM36 °FSunny.No wind41%30.60 "Hg10 mi
2:00 PM34 °FSunny.No wind44%30.63 "Hg10 mi
1:00 PM30 °FSunny.3 mph55%30.63 "Hg10 mi
12:00 PM25 °FSunny.10 mph69%30.66 "Hg10 mi
11:00 AM21 °FSunny.10 mph68%30.66 "Hg10 mi
10:00 AM19 °FSunny.10 mph73%30.63 "Hg10 mi
9:00 AM21 °FPassing clouds.13 mph68%30.63 "Hg5 mi
8:00 AM21 °FPassing clouds.10 mph68%30.63 "Hg5 mi
7:00 AM21 °FPassing clouds.10 mph68%30.63 "Hg5 mi
6:00 AM21 °FPassing clouds.10 mph74%30.63 "Hg5 mi
5:00 AM21 °FPassing clouds.10 mph74%30.66 "Hg5 mi
4:00 AM23 °FPassing clouds.8 mph68%30.66 "Hg5 mi
3:00 AM23 °FClear.8 mph68%30.69 "Hg10 mi
2:00 AM23 °FClear.8 mph68%30.69 "Hg10 mi
1:00 AM25 °FClear.8 mph69%30.69 "Hg10 mi
12:00 AM25 °FPassing clouds.8 mph74%30.69 "Hg4 mi
11:00 PM
Fri, Feb 5
27 °FPassing clouds.6 mph69%30.69 "Hg4 mi
Weather by CustomWeather, © 2016

See weather overviewHow to use our weather pages